Location: Bennemühlen
(52.5740°N, 9.7135°E)
Time: 10:39:01
(UTC+00:00)

Meteor 2-4 Rocket - Pass Details

Date: 19 May 2025
Orbit: 798 x 906 km, 81.2° (Epoch: 23 June)

Event Time Altitude Azimuth Distance (km) Brightness Sun altitude
Exits shadow 22:30:49 27° 169° (SSE) 1,596 4.5 -16.7°
Maximum altitude 22:33:54 63° 97° (E) 978 3.9 -16.8°
Drops below altitude 10° 22:39:40 10° 18° (NNE) 2,569 7.2 -17.0°
Sets 22:42:10 0° 16° (NNE) 3,524 8.2 -17.0°
